| time (UTC) | temp C | wind direction | speed KPH | gust KPH | rain 1hr cm | rain 24hr cm | rain mn cm | humidity % | barometer mb |
| 20260505090043 | 20 | 248 | 0.0 | 4.8 | 0.00 | 0.00 | 0.00 | 67 | 1014.1 |
| 20260505084542 | 20 | 271 | 0.0 | 4.8 | 0.00 | 0.00 | 0.00 | 66 | 1013.9 |
| 20260505083055 | 20 | 225 | 1.6 | 6.4 | 0.00 | 0.00 | 0.00 | 65 | 1013.7 |
| 20260505081540 | 20 | 236 | 0.0 | 4.8 | 0.00 | 0.00 | 0.00 | 65 | 1013.8 |
| 20260505080042 | 20 | 217 | 0.0 | 6.4 | 0.00 | 0.00 | 0.00 | 64 | 1013.9 |
| 20260505074538 | 20 | 297 | 0.0 | 6.4 | 0.00 | 0.00 | 0.00 | 64 | 1014.0 |
| 20260505073039 | 20 | 262 | 0.0 | 1.6 | 0.00 | 0.00 | 0.00 | 66 | 1014.0 |
| 20260505071535 | 20 | 240 | 0.0 | 6.4 | 0.00 | 0.00 | 0.00 | 65 | 1014.1 |
| 20260505070039 | 20 | 194 | 3.2 | 8.0 | 0.00 | 0.00 | 0.00 | 66 | 1014.2 |
| 20260505064530 | 20 | 207 | 0.0 | 4.8 | 0.00 | 0.00 | 0.00 | 67 | 1014.4 |
| 20260505063028 | 20 | 216 | 0.0 | 6.4 | 0.00 | 0.00 | 0.00 | 66 | 1014.7 |
| 20260505061531 | 20 | 225 | 3.2 | 8.0 | 0.00 | 0.00 | 0.00 | 65 | 1014.9 |
| 20260505060026 | 20 | 203 | 3.2 | 8.0 | 0.00 | 0.00 | 0.00 | 65 | 1015.0 |
| 20260505054537 | 20 | 243 | 0.0 | 4.8 | 0.00 | 0.00 | 0.00 | 65 | 1015.2 |
| 20260505053026 | 20 | 255 | 0.0 | 4.8 | 0.00 | 0.00 | 0.00 | 67 | 1015.3 |
| 20260505051522 | 20 | 238 | 0.0 | 6.4 | 0.00 | 0.00 | 0.00 | 68 | 1015.3 |
| 20260505041517 | 20 | 266 | 0.0 | 1.6 | 0.00 | 0.00 | 0.00 | 68 | 1015.5 |
| 20260505040033 | 20 | 277 | 0.0 | 0.0 | 0.00 | 0.00 | 0.00 | 69 | 1015.6 |
| 20260505034520 | 20 | 300 | 0.0 | 1.6 | 0.00 | 0.00 | 0.00 | 68 | 1015.5 |
| 20260505033016 | 20 | 217 | 0.0 | 6.4 | 0.00 | 0.00 | 0.00 | 67 | 1015.5 |
| 20260505031514 | 20 | 212 | 0.0 | 6.4 | 0.00 | 0.00 | 0.00 | 67 | 1015.7 |
| 20260505030016 | 20 | 271 | 0.0 | 4.8 | 0.00 | 0.00 | 0.00 | 67 | 1015.6 |
| 20260505024512 | 20 | 247 | 0.0 | 4.8 | 0.00 | 0.00 | 0.00 | 67 | 1015.4 |
| 20260505023013 | 20 | 219 | 1.6 | 6.4 | 0.00 | 0.00 | 0.00 | 67 | 1015.3 |
| 20260505021510 | 20 | 243 | 1.6 | 9.7 | 0.00 | 0.00 | 0.00 | 66 | 1015.4 |
| 20260505020013 | 20 | 257 | 0.0 | 4.8 | 0.00 | 0.00 | 0.00 | 66 | 1015.4 |
| 20260505014508 | 20 | 219 | 0.0 | 1.6 | 0.00 | 0.00 | 0.00 | 67 | 1015.5 |
| 20260505013006 | 20 | 226 | 0.0 | 4.8 | 0.00 | 0.00 | 0.00 | 64 | 1015.7 |
| 20260505011506 | 21 | 311 | 1.6 | 6.4 | 0.00 | 0.00 | 0.00 | 64 | 1015.8 |
| 20260505010005 | 21 | 255 | 0.0 | 11.3 | 0.00 | 0.00 | 0.00 | 65 | 1015.7 |
| 20260505004507 | 21 | 209 | 3.2 | 8.0 | 0.00 | 0.00 | 0.00 | 65 | 1015.8 |
| 20260505003003 | 21 | 213 | 3.2 | 6.4 | 0.00 | 0.00 | 0.00 | 63 | 1015.8 |
| 20260505001502 | 21 | 223 | 3.2 | 11.3 | 0.00 | 0.00 | 0.00 | 61 | 1015.8 |
| 20260505000003 | 22 | 222 | 1.6 | 11.3 | 0.00 | 0.00 | 0.00 | 59 | 1015.8 |
| 20260504234501 | 23 | 226 | 4.8 | 8.0 | 0.00 | 0.00 | 0.00 | 57 | 1016.1 |
| 20260504233104 | 23 | 226 | 1.6 | 8.0 | 0.00 | 0.00 | 0.00 | 55 | 1016.1 |
| 20260504231600 | 23 | 206 | 6.4 | 14.5 | 0.00 | 0.00 | 0.00 | 56 | 1015.9 |
| 20260504230059 | 23 | 211 | 8.0 | 14.5 | 0.00 | 0.00 | 0.00 | 56 | 1015.9 |
| 20260504224600 | 23 | 243 | 6.4 | 14.5 | 0.00 | 0.00 | 0.00 | 54 | 1016.0 |
| 20260504223058 | 23 | 204 | 6.4 | 17.7 | 0.00 | 0.00 | 0.00 | 55 | 1016.1 |
| 20260504221557 | 23 | 199 | 9.7 | 14.5 | 0.00 | 0.00 | 0.00 | 54 | 1016.0 |
| 20260504214557 | 23 | 210 | 6.4 | 16.1 | 0.00 | 0.00 | 0.00 | 53 | 1016.1 |
| 20260504213109 | 23 | 197 | 9.7 | 19.3 | 0.00 | 0.00 | 0.00 | 52 | 1016.1 |
| 20260504211552 | 23 | 158 | 4.8 | 17.7 | 0.00 | 0.00 | 0.00 | 53 | 1016.2 |
| 20260504210051 | 23 | 155 | 6.4 | 12.9 | 0.00 | 0.00 | 0.00 | 51 | 1016.3 |
| 20260504204559 | 23 | 186 | 1.6 | 11.3 | 0.00 | 0.00 | 0.00 | 50 | 1016.3 |
| 20260504203049 | 23 | 214 | 1.6 | 12.9 | 0.00 | 0.00 | 0.00 | 52 | 1016.4 |
| 20260504201548 | 23 | 152 | 0.0 | 14.5 | 0.00 | 0.00 | 0.00 | 52 | 1016.5 |
| 20260504200047 | 23 | 161 | 1.6 | 12.9 | 0.00 | 0.00 | 0.00 | 49 | 1016.6 |
| 20260504194545 | 23 | 200 | 3.2 | 11.3 | 0.00 | 0.00 | 0.00 | 50 | 1016.9 |
| 20260504193055 | 23 | 185 | 1.6 | 9.7 | 0.00 | 0.00 | 0.00 | 48 | 1017.1 |
| 20260504191542 | 23 | 227 | 1.6 | 8.0 | 0.00 | 0.00 | 0.00 | 46 | 1017.3 |
| 20260504190042 | 24 | 101 | 0.0 | 4.8 | 0.00 | 0.00 | 0.00 | 47 | 1017.5 |
| 20260504184540 | 24 | 131 | 0.0 | 1.6 | 0.00 | 0.00 | 0.00 | 48 | 1017.6 |
| 20260504183041 | 24 | 200 | 0.0 | 1.6 | 0.00 | 0.00 | 0.00 | 46 | 1017.8 |
| 20260504181536 | 24 | 192 | 0.0 | 1.6 | 0.00 | 0.00 | 0.00 | 47 | 1017.9 |
| 20260504180043 | 23 | 181 | 0.0 | 1.6 | 0.00 | 0.00 | 0.00 | 49 | 1018.0 |
| 20260504174531 | 23 | 250 | 0.0 | 8.0 | 0.00 | 0.00 | 0.00 | 47 | 1018.0 |
| 20260504173027 | 23 | 189 | 0.0 | 11.3 | 0.00 | 0.00 | 0.00 | 50 | 1018.2 |
| 20260504171526 | 22 | 205 | 3.2 | 12.9 | 0.00 | 0.00 | 0.00 | 52 | 1018.3 |